Regional Weather Roundup
Issued by NWS

Home | Current Version | Previous Version | Text Only | Print | Product List | Glossary On
Versions: 1 2 3 4 5 6 7 8 9 10 11 12 13 14 15 16 17 18 19 20 21 22 23 24 25 26 27
000
ASUS45 KTFX 161510
RWRMT
MONTANA REGIONAL WEATHER ROUNDUP
NATIONAL WEATHER SERVICE GREAT FALLS MT
900 AM MDT WED AUG 16 2017

NOTE: "FAIR" INDICATES FEW OR NO CLOUDS BELOW 12000 FEET WITH NO
SIGNIFICANT WEATHER AND/OR OBSTRUCTIONS TO VISIBILITY.

MTZ001>007-043-161600-
WEST OF THE DIVIDE

CITY           SKY/WX    TMP DP  RH WIND       PRES   REMARKS
KALISPELL      SUNNY     58  45  62 NE5       30.02R
MISSOULA       SUNNY     54  36  50 CALM      30.07S
BUTTE          SUNNY     51  33  50 CALM      30.14S
MULLAN PASS    SUNNY     54  32  43 NW5       30.14R
ANACONDA         N/A     59  34  38 CALM      30.11S
DEER LODGE       N/A     54  36  50 CALM      30.13S
EUREKA           N/A     61  39  44 MISG      30.01S
HAMILTON         N/A     57  39  51 CALM      30.08S
LIBBY            N/A     55  37  50 CALM      30.02R
RONAN            N/A     62  44  51 E2        30.07R
$$

MTZ008-052>055-161600-
SOUTHWEST MONTANA

CITY           SKY/WX    TMP DP  RH WIND       PRES   REMARKS
BOZEMAN        SUNNY     60  41  49 CALM      30.08R
DILLON         SUNNY     56  42  59 S9        30.11R
W YELLOWSTONE  SUNNY     46  39  76 CALM      30.22S
ENNIS          SUNNY     57  43  58 CALM      30.17R
THREE FORKS      N/A     55  42  61 CALM      30.06R
$$

MTZ009-010-012-014-046-048-049-054-161600-
EAST SLOPES AND CENTRAL MONTANA

CITY           SKY/WX    TMP DP  RH WIND       PRES   REMARKS
CUT BANK       SUNNY     62  38  40 W5        29.98S
GREAT FALLS    SUNNY     65  29  25 SW12      30.00S
MALMSTROM AFB  SUNNY     62  33  33 SW6       30.00S
HELENA         SUNNY     61  34  36 CALM      30.07R
AUGUSTA          N/A     66  29  25 W14G20    30.02S
BOWMANS CRNR     N/A     58  29  32 S8        30.02R
CHOTEAU          N/A     64  36  34 S5        30.01S
CONRAD           N/A     71  41  33 W5        29.99S
FAIRFIELD        N/A     64  33  31 S3        30.00R
POWER            N/A     64  31  28 SW6       29.99S
RAYNESFORD       N/A     60  37  42 CALM      30.02S
ULM              N/A     65  31  28 S8        30.00S
$$

MTZ011-013-016-021-045-047-050-051-161600-
NORTH CENTRAL MONTANA

CITY           SKY/WX    TMP DP  RH WIND       PRES   REMARKS
HAVRE          SUNNY     58  39  49 W7        29.94S
LEWISTOWN      SUNNY     61  43  51 CALM      30.01R
N BAR RANCH      N/A     66  43  42 CALM      30.03R
CHINOOK          N/A     59  43  55 CALM      29.94S
DENTON           N/A     62  36  38 SW6       29.96R
GEYSER           N/A     68  31  25 W15       30.00R
GRASS RANGE      N/A     69  42  38 W10       29.95S
JUDITH GAP       N/A     68  35  29 CALM      30.03R
WINIFRED         N/A     65  39  39 W13       29.97S
$$

MTZ017>020-022>027-061-062-161600-
NORTHEAST MONTANA

CITY           SKY/WX    TMP DP  RH WIND       PRES   REMARKS
GLASGOW        SUNNY     66  52  60 E6        29.93S
JORDAN           N/A     65  44  46 CALM      29.94F
SIDNEY         CLOUDY    59  58  96 S3        29.96S FOG
WOLF POINT     SUNNY     63  52  67 E5        29.95S
MALTA          SUNNY     63  46  55 E7        29.93S
PLENTYWOOD       N/A     66  52  59 CALM      29.96F
POPLAR           N/A     64  55  72 CALM      29.95S
$$

MTZ028>42-056>058-161600-
SOUTHCENTRAL AND SOUTHEAST MONTANA

CITY           SKY/WX    TMP DP  RH WIND       PRES   REMARKS
BAKER          SUNNY     65  58  78 E3        30.01R
BILLINGS       MOSUNNY   63  47  55 SW12      30.01R
LIVINGSTON     SUNNY     59  42  53 NW9       30.06S
MILES CITY     SUNNY     64  46  52 S6        29.97R
BIG TIMBER     SUNNY     63  41  45 SW8       30.08R
FORSYTH          N/A     68  46  45 CALM      29.96S
HARLOWTON        N/A     61  38  42 MISG      30.03S
LAUREL           N/A     66  47  50 S7        30.00F
$$

REGIONAL REPORTS...DAKOTAS

CITY           SKY/WX    TMP DP  RH WIND       PRES   REMARKS
WILLISTON      FOG       60  58  92 CALM      29.96S VSB 1/4
MINOT          FOG       59  58  96 NW7       29.93R VSB 1/4
DICKINSON      SUNNY     65  62  90 NW5       29.97R
BEACH            N/A     66  61  82 CALM      30.02R
CROSBY           N/A     64  57  77 CALM      29.96S
TIOGA            N/A     64  64 100 CALM      29.98S
WATFORD CITY     N/A     59  59 100 CALM      29.96S FOG
BISMARCK       CLOUDY    64  59  83 N12       29.94R
GRAND FORKS    LGT RAIN  64  64 100 E8        29.85S FOG
FARGO          CLOUDY    66  65  96 SE3       29.84S
BUFFALO SD       N/A     67  59  75 N5        29.94S
RAPID CITY     CLOUDY    64  55  72 N17       30.01R
$$

REGIONAL REPORTS...WYOMING/IDAHO/WASHINGTON

CITY           SKY/WX    TMP DP  RH WIND       PRES   REMARKS
GILLETTE       SUNNY     68  45  43 W7        30.06S
SHERIDAN       SUNNY     63  44  50 CALM      30.03S
BUFFALO WY     SUNNY     68  42  38 E3        30.08S
CODY           SUNNY     64  42  44 SW12G20   30.10S
YELLOWSTONE LA   N/A     50  44  80 E3        30.29R
IDAHO FALLS    SUNNY     55  47  74 N6        30.12R
SALMON         CLOUDY    54  44  69 CALM      30.11R
BOISE          SUNNY     65  37  35 S6        30.02R
SPOKANE        MOSUNNY   61  38  42 S9        30.01R
$$

REGIONAL REPORTS...ALBERTA

CITY           SKY/WX    TMP DP  RH WIND       PRES   REMARKS
EDMONTON       PTSUNNY   59  50  72 W5        29.87S
CALGARY        CLOUDY    55  43  62 S3        29.93S SMOKE
LETHBRIDGE     MOSUNNY   59  41  51 SW6       29.93S
MEDICINE HAT   SUNNY     55  46  71 CALM      29.91S
$$

REGIONAL REPORTS...SASKATCHEWAN

CITY           SKY/WX    TMP DP  RH WIND       PRES   REMARKS
SWIFT CURRENT  MOSUNNY   64  48  55 VRB2      29.95S
REGINA         MOSUNNY   61  48  63 NW8       29.96R
SASKATOON      MOSUNNY   61  48  63 W8        29.91S
$$




USA.gov is the U.S. government's official web portal to all federal, state and local government web resources and services.